Location: Unspecified
(42.3650°N, 71.1030°W)
Time: 23:17:57
(UTC+00:00)

Courier 1B Rocket - Pass Details

Date: 02 July 2024
Orbit: 920 x 1201 km, 28.2° (Epoch: 17 July)

Event Time Altitude Azimuth Distance (km) Brightness Sun altitude
Exits shadow 06:48:37 12° 155° (SSE) 2,535 6.8 -19.0°
Drops below altitude 10° 06:49:18 10° 150° (SSE) 2,692 7.0 -19.0°
Sets 06:52:51 0° 132° (SE) 3,687 7.9 -18.6°
